SCP
0 0 0 0 0 0 0 0 -0 -0 -0 -0 0 -0 0 0 -0 -0 0 0 -0 -0 -0 -0 -0 -0 -0 -0 -0 -0 -0 -0 -0 -0 -0 -0 -0 -0 -0 0 0 0 0 0 0 0 0 0 0
0 0 0 0 0 0 0 0 -0 0 0 -0 -0 -0 -0 -0 0 0 -0 0 -0 -0 -0 -0 -0 -0 -0 -0 -0 -0 -0 -0 -0 -0 -0 -0 -0 -0 -0 0 0 0 0 0 0 0 0 0 0
0 0 0 0 0 0 0 0 -0 0 0 0 0 0 0 -0 -0 0 -0 0 -0 -0 -0 0 -0 -0 -0 -0 -0 -0 -0 -0 -0 -0 -0 0 0 0 0 0 0 0 0 0 0 0 0 0 0
0 0 0 0 0 0 0 0 0 0 0 0 0 -0 -0 0 0 0 0 0 0 -0 0 -0 0 0 0 0 -0 -0 -0 -0 -0 -0 -0 0 0 0 0 0 0 0 0 0 0 0 0 0 0
0 0 0 0 0 0 0 0 0 0 0 0 0 0 0 0 0 0 0 0 0 0 0 0 0 0 0 0 0 0 0 0 0 0 0 0 0 0 0 0 0 0 0 0 0 0 0 0 0
0 0 0 0 0 0 0 0 0 0 0 0 0 0 0 0 0 0 0 0 0 0 0 0 0 0 0 0 0 0 0 0 0 0 0 0 0 0 0 0 0 0 0 0 0 0 0 0 0
0 0 0 0 0 0 0 0 0 0 0 0 0 0 0 0 0 0 1 1 1 0 0 0 0 0 0 0 0 0 0 0 0 0 0 0 0 0 0 0 0 0 0 0 0 0 0 0 0
0 0 0 0 0 0 0 0 0 0 0 0 0 0 0 0 0 0 0 0 0 1 1 1 1 0 0 0 0 0 0 0 0 0 0 0 0 0 0 0 0 0 0 0 0 0 0 0 0
0 0 0 0 0 0 0 0 0 0 0 0 0 0 0 0 0 0 0 0 0 0 0 0 0 0 0 1 0 0 1 1 1 1 0 0 0 0 0 0 0 0 0 0 0 0 0 0 0
0 0 0 0 0 0 0 0 0 0 0 0 0 0 0 0 0 0 0 0 0 0 0 0 0 0 0 0 0 1 1 1 1 1 1 0 0 0 0 0 0 0 0 0 0 0 0 0 0
0 0 0 0 0 0 0 0 0 0 0 0 0 0 0 0 0 0 0 0 0 0 0 0 0 0 0 0 0 0 0 0 0 1 1 1 1 1 0 0 1 1 1 1 1 1 0 0 0
0 0 0 0 0 0 0 0 0 0 0 0 0 0 0 0 0 0 0 0 0 0 0 0 0 0 0 0 0 0 0 0 0 0 1 1 1 1 0 0 0 0 1 1 1 1 0 0 0
0 0 0 0 0 0 0 0 0 0 0 0 0 0 0 0 0 0 0 0 0 0 0 0 0 0 0 0 0 0 0 0 0 0 0 0 0 0 1 1 1 1 1 1 1 1 0 0 0
0 0 0 0 0 0 0 0 0 0 0 0 0 0 0 0 0 0 0 0 0 0 0 0 0 0 0 0 0 0 0 0 0 0 0 0 0 0 0 1 0 1 1 1 1 1 1 0 0
0 0 0 0 0 0 0 0 0 0 0 0 0 0 0 0 0 0 0 0 0 0 0 -0 -0 0 -0 -0 -0 -0 -0 0 0 0 0 0 0 0 0 0 0 0 0 0 1 1 1 1 0
0 0 0 0 0 0 0 0 0 0 0 0 0 0 0 0 0 0 0 0 0 0 0 -0 -0 -0 -0 -0 -0 0 0 0 0 0 0 0 0 0 0 0 0 0 0 0 0 1 1 1 0
0 0 0 0 0 0 0 0 0 0 0 0 0 0 0 0 0 0 0 0 0 0 0 0 0 0 0 -0 -0 -0 0 0 0 0 0 0 0 0 0 0 0 0 0 0 0 0 1 1 1
0 0 0 0 0 0 0 0 0 0 0 0 0 0 0 0 0 0 0 0 0 0 0 0 0 0 -0 -0 -0 -0 0 0 0 0 0 0 0 0 0 0 0 0 0 0 0 0 0 1 1
0 0 0 0 0 0 0 0 0 0 0 0 0 0 0 0 0 0 0 0 0 0 0 0 0 0 -0 -0 -0 -0 -0 0 0 0 0 0 0 0 0 0 0 0 0 0 0 0 0 0 0
0 0 0 0 0 0 0 0 0 0 0 0 0 0 0 0 0 0 0 0 0 0 0 0 0 0 0 -0 -0 -0 -0 -0 0 0 0 0 0 0 0 0 0 0 0 0 0 0 0 0 0
0 0 0 0 0 0 0 0 0 0 0 0 0 0 0 0 0 0 0 0 0 0 0 0 0 0 0 0 0 0 0 0 0 0 0 0 0 0 0 0 0 0 0 0 0 0 0 0 0
0 0 0 0 0 0 0 0 0 0 0 0 0 0 0 0 0 0 0 0 0 0 0 0 0 0 0 0 0 0 0 0 0 0 0 0 0 0 0 0 0 0 0 0 0 0 0 0 0
0 0 0 0 0 0 0 0 0 0 0 0 0 0 0 0 0 0 0 0 0 0 0 0 0 0 0 0 0 0 0 0 0 0 0 0 0 0 0 0 0 0 0 0 0 0 0 0 0
0 0 0 0 0 0 0 0 0 0 -0 0 0 0 0 0 0 0 0 0 0 0 0 0 0 0 0 0 0 0 0 0 0 0 0 0 0 0 0 0 0 0 0 0 0 0 0 0 0
0 0 0 0 0 0 0 0 0 0 0 0 0 0 0 0 0 0 0 0 0 0 0 0 0 0 0 0 0 0 0 0 0 0 0 0 0 0 0 0 0 0 0 0 0 0 0 0 0
0 0 0 0 0 0 0 0 0 0 0 0 0 0 0 0 0 0 0 0 0 0 0 0 0 0 0 0 0 0 0 0 0 0 0 0 0 0 0 0 0 0 0 0 0 0 0 0 0
0 0 0 0 0 0 0 0 0 0 0 0 0 0 0 0 0 0 0 0 0 0 0 0 0 0 0 0 0 0 0 0 0 0 0 0 0 0 0 0 0 0 0 0 0 0 0 0 0
0 0 0 0 0 0 0 0 0 0 0 0 0 0 0 0 0 0 0 0 0 0 0 0 0 0 0 0 0 0 0 0 0 0 0 0 0 0 0 0 0 0 0 0 0 0 0 0 0
0 0 0 0 0 0 0 0 0 0 0 -0 -0 -0 -0 0 0 0 0 0 0 0 0 0 0 0 0 0 0 0 0 0 0 0 0 0 0 0 0 0 0 0 0 0 0 0 0 0 0
0 0 0 0 0 0 0 0 0 0 0 0 -0 -0 0 0 0 0 0 0 0 0 0 0 0 0 0 0 0 0 0 0 0 0 0 0 0 0 0 0 0 0 0 0 0 0 0 0 0
Wind_Speed_500mb
5 10 5 6 6 9 5 7 3 8 7 8 29 10 11 8 5 8 6 4 7 25 34 33 28 23 19 18 19 23 24 25 25 24 24 23 23 23 26 24 21 20 20 21 20 19 19 18 16
8 6 6 7 9 8 8 8 9 5 11 36 37 24 12 6 13 10 8 7 13 27 31 31 27 23 18 16 16 17 19 20 21 24 26 25 24 24 26 25 22 20 20 20 18 16 15 14 12
6 5 6 9 8 9 9 6 2 13 18 12 10 16 10 10 15 6 5 11 14 22 28 28 24 21 18 14 11 12 13 16 18 21 23 25 25 26 27 24 21 21 21 21 18 14 11 10 10
5 5 9 8 5 5 6 5 9 12 17 15 27 14 13 18 5 7 16 15 16 16 21 25 23 20 18 15 12 9 8 8 13 17 18 19 24 27 29 25 22 22 23 22 20 15 11 8 7
3 6 8 9 2 8 7 10 2 5 7 21 10 10 11 16 10 8 18 21 19 16 18 22 20 19 18 16 14 11 8 5 5 10 14 15 18 25 29 27 23 22 24 24 23 19 16 13 11
4 7 9 7 7 2 4 10 13 7 10 20 17 14 10 14 9 12 21 20 20 17 15 18 17 14 13 11 10 10 10 10 7 6 8 14 17 21 27 29 26 23 24 24 25 24 21 18 17
10 8 9 8 13 5 6 11 12 15 14 9 17 9 13 25 23 21 27 23 23 19 19 18 12 8 5 1 4 8 10 11 11 11 10 10 16 21 26 29 30 28 25 25 24 26 27 25 23
4 8 6 5 8 10 8 8 13 15 6 19 17 11 12 30 26 23 27 32 30 27 24 24 14 14 11 9 2 11 13 13 13 14 16 16 16 19 25 30 32 33 33 30 28 26 27 29 30
4 9 6 12 12 9 14 10 11 8 17 9 8 23 36 39 35 24 31 33 34 33 30 27 20 14 12 13 14 9 7 10 10 13 16 19 22 23 24 27 32 35 37 38 37 34 31 30 31
8 7 18 12 12 11 17 9 18 10 17 16 40 45 49 43 28 30 33 36 30 26 23 19 14 7 7 8 8 7 7 1 4 8 12 17 22 26 29 30 31 33 37 41 42 41 40 37 33
9 9 11 9 16 26 23 19 10 30 4 35 57 50 44 36 22 24 36 33 32 30 26 21 18 10 4 5 8 7 6 6 7 11 14 16 19 23 29 33 36 37 37 40 43 44 45 45 42
3 8 11 18 22 14 16 19 14 20 17 41 48 49 47 38 31 30 28 26 23 25 19 15 12 7 3 4 8 10 12 14 15 16 18 21 24 26 27 31 36 40 41 44 45 46 46 47 47
2 3 7 12 25 13 20 15 13 25 16 46 46 49 47 41 40 34 25 25 22 19 19 12 2 7 14 17 18 20 22 24 28 29 29 27 28 31 33 35 36 40 44 47 49 50 52 49 49
4 1 2 9 15 12 17 8 12 23 18 53 50 49 47 50 45 42 36 28 28 22 17 7 5 12 13 15 16 18 20 24 25 29 33 36 37 35 36 41 44 41 49 49 51 54 57 57 52
1 5 7 5 9 8 15 7 15 20 35 59 55 53 52 50 46 29 29 35 29 21 11 2 5 8 12 20 28 30 29 26 24 27 30 33 37 41 42 43 43 48 51 54 58 58 58 63 61
7 10 5 4 11 7 25 14 17 34 46 58 58 55 59 57 51 46 44 39 32 22 12 7 3 8 16 29 35 32 33 34 37 36 32 34 35 38 43 45 46 47 48 55 54 53 62 65 69
12 6 7 10 17 4 13 7 23 32 47 63 61 58 65 61 55 52 48 41 33 25 15 12 7 6 17 35 37 38 37 37 41 42 45 43 39 40 42 45 50 50 52 50 56 55 50 65 75
11 7 7 7 6 7 8 15 15 15 43 59 65 62 71 68 66 61 53 44 35 29 20 16 5 14 24 30 37 39 36 39 43 46 47 50 52 49 50 50 49 53 56 54 52 52 62 58 70
2 2 4 5 7 4 12 13 21 26 15 22 40 60 72 77 72 62 54 46 40 33 26 16 7 14 25 29 41 47 46 49 51 52 54 53 54 55 54 48 48 47 53 58 55 56 55 61 69
6 3 11 12 7 7 7 16 18 11 18 43 52 61 70 80 76 67 61 54 46 36 26 13 6 15 27 34 46 53 56 58 60 63 64 61 55 52 53 54 50 47 49 53 56 56 60 63 41
7 9 10 14 6 4 8 13 12 14 25 42 55 70 74 85 89 78 70 62 52 42 25 13 13 23 32 38 46 54 55 57 64 67 73 69 61 56 53 56 56 52 50 50 51 52 54 60 64
7 16 11 8 7 8 3 11 10 11 15 12 54 62 58 69 87 85 76 66 57 39 24 15 18 26 31 38 47 57 59 61 65 72 78 80 67 58 58 57 58 57 54 54 51 49 50 49 54
15 9 14 6 6 2 3 3 13 5 11 20 25 49 48 59 80 91 80 67 49 32 17 18 22 24 30 40 49 59 61 62 68 75 80 79 73 61 58 55 53 55 56 56 54 52 49 48 51
17 11 14 9 6 4 14 14 10 7 8 12 12 36 42 53 69 86 71 56 41 25 22 24 24 25 32 41 51 61 62 63 71 78 81 79 74 68 60 56 58 55 54 56 54 51 51 49 52
11 12 5 7 4 11 0 3 16 11 14 11 27 47 27 45 65 79 69 52 32 27 28 28 27 29 36 45 55 61 59 64 72 77 80 77 72 67 61 58 59 61 58 58 60 56 54 52 54
13 16 12 12 7 8 2 12 12 5 13 23 21 15 21 43 66 69 54 35 33 33 33 32 31 35 41 50 59 59 60 67 76 79 77 73 70 68 66 62 63 62 60 58 57 63 62 59 57
9 7 9 13 5 4 9 14 15 4 11 9 10 28 39 55 59 48 39 43 38 38 36 34 35 38 46 54 58 60 65 70 79 78 76 74 71 70 69 68 67 67 66 61 60 65 67 68 65
11 15 7 5 7 10 9 9 12 10 8 6 10 31 47 49 48 49 45 42 42 43 40 38 37 44 51 57 57 63 69 73 80 78 76 75 74 73 71 71 69 69 69 66 62 64 60 66 69
6 4 10 9 9 11 3 12 14 18 20 21 24 50 55 55 50 48 48 48 47 45 40 36 41 48 54 56 60 67 73 76 81 76 72 74 76 73 72 74 74 73 71 68 69 67 64 70 71
12 17 14 11 11 5 6 22 12 17 23 39 45 52 48 46 46 46 49 51 50 43 39 40 44 51 54 56 65 72 76 78 77 73 69 71 77 76 77 77 77 76 74 72 73 70 65 67 72
Wind_Direction_500mb
174 201 240 152 62 67 313 262 257 118 121 106 123 141 117 69 70 151 351 70 158 169 166 167 167 163 152 147 161 172 181 191 196 197 192 187 183 174 168 157 151 147 141 135 132 131 130 122 108
171 197 171 128 90 92 256 269 181 132 128 115 103 109 80 66 53 58 82 85 148 177 171 166 165 164 160 150 150 161 176 188 202 207 205 201 197 189 180 169 162 158 152 150 146 140 137 133 125
158 164 169 97 116 160 194 244 223 102 100 121 101 69 50 342 20 53 83 112 131 165 169 165 165 166 166 165 160 154 164 179 191 201 206 208 204 200 191 182 173 169 166 165 161 156 148 149 147
178 156 74 86 137 239 233 113 124 128 93 84 110 70 86 43 32 35 129 119 126 152 164 166 167 167 167 169 178 183 170 169 182 189 200 209 210 206 201 194 187 181 178 178 177 176 173 187 191
124 82 59 94 184 294 298 101 109 87 94 104 82 110 85 68 82 78 138 113 126 131 150 167 169 169 172 174 176 179 180 178 188 196 198 205 214 213 210 207 202 198 191 188 191 193 196 216 219
88 83 67 155 170 253 16 138 141 110 122 115 108 99 72 70 117 121 146 139 134 132 131 159 166 172 176 181 188 196 197 196 198 221 228 218 213 216 221 223 220 217 211 202 200 204 208 218 240
117 83 169 170 149 92 155 141 171 146 123 100 121 89 109 94 96 124 143 143 134 136 130 124 111 108 112 93 255 244 233 227 226 220 225 242 244 233 229 230 234 234 231 222 216 212 216 220 233
113 93 109 200 185 177 182 125 138 104 63 120 124 148 143 116 120 132 144 145 143 142 122 120 133 104 90 66 357 235 237 249 247 243 243 237 240 250 253 250 243 240 240 237 233 229 225 226 232
138 67 161 199 167 182 164 139 166 156 136 119 146 133 133 126 121 131 135 136 145 139 143 134 127 123 102 83 61 64 202 228 255 269 266 259 256 253 254 257 259 257 252 247 244 242 240 235 235
97 113 204 188 184 181 156 149 142 128 124 109 119 130 134 133 137 127 131 132 135 141 138 145 138 136 100 55 41 61 85 102 260 272 271 271 264 258 261 262 260 262 263 261 258 253 250 249 243
153 181 186 200 183 159 150 149 147 131 311 162 152 151 153 153 168 150 133 134 134 127 127 129 142 129 92 36 18 13 351 307 287 262 269 278 276 270 264 258 262 266 265 265 264 263 260 256 253
168 224 182 163 160 154 163 150 127 151 199 187 168 163 160 163 163 161 151 142 143 143 148 155 164 175 224 294 305 314 314 316 311 299 287 277 270 272 277 274 269 266 266 268 268 266 263 261 259
148 275 206 196 174 169 168 181 181 206 169 179 172 171 169 169 165 159 159 158 162 174 165 167 195 315 317 313 312 308 300 293 291 295 296 293 284 276 265 264 274 272 269 265 266 269 270 266 262
300 285 20 195 182 154 159 206 180 225 186 186 180 180 182 176 173 169 173 181 178 176 164 174 289 309 323 336 346 342 328 317 306 291 282 285 287 284 283 277 263 264 266 269 268 264 267 268 266
56 105 7 246 203 225 172 287 222 200 187 176 184 188 188 186 186 207 203 196 191 187 189 256 326 359 22 22 8 359 352 343 325 312 303 293 287 285 281 278 282 272 267 267 268 263 266 265 260
80 53 137 267 159 239 164 235 249 208 184 190 193 193 192 195 199 195 194 194 188 196 209 265 298 37 23 8 1 358 351 344 336 327 313 303 299 292 286 283 275 275 278 269 264 267 266 267 265
5 195 184 302 200 128 174 269 245 202 193 197 198 198 198 198 197 197 195 195 195 198 209 207 181 36 13 2 359 352 346 341 338 331 323 316 305 297 292 286 284 277 271 270 264 256 260 271 270
211 196 222 214 201 169 189 264 284 191 199 207 205 202 202 203 209 203 198 196 199 207 212 211 224 13 12 2 356 347 340 337 335 332 327 318 312 306 298 292 288 283 276 269 266 264 258 261 271
145 173 255 252 256 216 223 246 252 252 218 200 207 207 209 209 210 203 201 199 202 207 213 220 275 359 359 354 349 345 339 335 333 330 326 318 310 304 304 300 292 288 279 274 271 268 265 264 260
187 291 285 284 265 167 288 261 251 247 229 232 215 210 213 213 212 205 203 205 211 215 212 224 293 334 344 348 346 342 335 331 329 326 324 321 312 302 297 296 295 291 287 275 270 269 270 264 270
215 185 224 220 360 15 336 280 237 258 246 240 234 235 230 221 212 205 202 206 210 214 219 239 302 327 335 340 336 334 329 323 323 324 325 323 316 305 295 292 290 288 284 281 275 269 268 271 259
246 210 178 180 107 236 41 281 286 241 249 256 250 241 237 224 216 207 202 204 207 208 222 266 299 314 324 329 326 329 327 323 322 322 323 321 317 306 296 289 286 284 282 277 274 269 265 265 268
229 144 154 137 132 86 276 309 261 249 255 252 255 254 250 232 221 209 203 203 201 206 228 260 288 304 314 318 318 324 320 319 317 318 319 317 313 305 297 293 288 283 278 273 272 269 265 261 263
153 81 55 60 102 312 212 183 272 245 215 303 276 284 283 234 218 207 196 195 197 208 238 259 275 294 304 308 313 318 316 316 316 319 318 317 312 307 301 296 293 289 277 269 269 268 264 261 258
83 75 345 343 2 232 197 128 251 243 281 255 287 293 269 217 203 190 185 185 198 224 242 254 272 288 294 301 310 314 313 312 316 317 316 314 311 305 301 298 295 294 286 274 264 264 263 259 256
187 155 157 209 199 254 95 235 250 247 311 305 297 259 197 186 184 174 177 190 215 230 243 255 270 279 291 302 310 311 309 311 315 316 314 310 307 305 301 296 293 293 290 282 272 264 259 257 257
190 165 200 106 23 63 234 290 304 234 359 25 110 148 156 159 160 169 189 208 222 236 247 256 265 282 296 305 308 308 309 312 317 316 313 312 309 308 304 299 296 295 294 288 279 267 258 257 259
168 158 78 6 171 229 268 269 235 236 211 141 138 153 157 163 178 193 206 221 231 237 243 253 272 287 300 305 305 307 311 313 317 314 313 311 307 305 303 298 296 293 293 291 286 275 265 257 254
145 187 52 128 145 184 213 256 217 211 188 188 198 181 185 193 200 210 219 226 233 238 244 261 278 293 300 300 303 307 311 313 316 312 311 308 304 303 301 299 298 297 294 290 286 280 267 254 251
177 195 158 144 221 227 167 261 201 211 192 189 205 205 208 215 223 227 230 232 236 240 251 270 288 294 297 301 307 309 311 314 315 313 310 308 305 304 303 301 297 296 296 292 285 283 268 255 251
Wind_Speed_850mb
5 10 5 6 6 9 5 7 3 8 7 8 29 10 11 8 5 8 6 4 7 25 34 33 28 23 19 18 19 23 24 25 25 24 24 23 23 23 26 24 21 20 20 21 20 19 19 18 16
8 6 6 7 9 8 8 8 9 5 11 36 37 24 12 6 13 10 8 7 13 27 31 31 27 23 18 16 16 17 19 20 21 24 26 25 24 24 26 25 22 20 20 20 18 16 15 14 12
6 5 6 9 8 9 9 6 2 13 18 12 10 16 10 10 15 6 5 11 14 22 28 28 24 21 18 14 11 12 13 16 18 21 23 25 25 26 27 24 21 21 21 21 18 14 11 10 10
5 5 9 8 5 5 6 5 9 12 17 15 27 14 13 18 5 7 16 15 16 16 21 25 23 20 18 15 12 9 8 8 13 17 18 19 24 27 29 25 22 22 23 22 20 15 11 8 7
3 6 8 9 2 8 7 10 2 5 7 21 10 10 11 16 10 8 18 21 19 16 18 22 20 19 18 16 14 11 8 5 5 10 14 15 18 25 29 27 23 22 24 24 23 19 16 13 11
4 7 9 7 7 2 4 10 13 7 10 20 17 14 10 14 9 12 21 20 20 17 15 18 17 14 13 11 10 10 10 10 7 6 8 14 17 21 27 29 26 23 24 24 25 24 21 18 17
10 8 9 8 13 5 6 11 12 15 14 9 17 9 13 25 23 21 27 23 23 19 19 18 12 8 5 1 4 8 10 11 11 11 10 10 16 21 26 29 30 28 25 25 24 26 27 25 23
4 8 6 5 8 10 8 8 13 15 6 19 17 11 12 30 26 23 27 32 30 27 24 24 14 14 11 9 2 11 13 13 13 14 16 16 16 19 25 30 32 33 33 30 28 26 27 29 30
4 9 6 12 12 9 14 10 11 8 17 9 8 23 36 39 35 24 31 33 34 33 30 27 20 14 12 13 14 9 7 10 10 13 16 19 22 23 24 27 32 35 37 38 37 34 31 30 31
8 7 18 12 12 11 17 9 18 10 17 16 40 45 49 43 28 30 33 36 30 26 23 19 14 7 7 8 8 7 7 1 4 8 12 17 22 26 29 30 31 33 37 41 42 41 40 37 33
9 9 11 9 16 26 23 19 10 30 4 35 57 50 44 36 22 24 36 33 32 30 26 21 18 10 4 5 8 7 6 6 7 11 14 16 19 23 29 33 36 37 37 40 43 44 45 45 42
3 8 11 18 22 14 16 19 14 20 17 41 48 49 47 38 31 30 28 26 23 25 19 15 12 7 3 4 8 10 12 14 15 16 18 21 24 26 27 31 36 40 41 44 45 46 46 47 47
2 3 7 12 25 13 20 15 13 25 16 46 46 49 47 41 40 34 25 25 22 19 19 12 2 7 14 17 18 20 22 24 28 29 29 27 28 31 33 35 36 40 44 47 49 50 52 49 49
4 1 2 9 15 12 17 8 12 23 18 53 50 49 47 50 45 42 36 28 28 22 17 7 5 12 13 15 16 18 20 24 25 29 33 36 37 35 36 41 44 41 49 49 51 54 57 57 52
1 5 7 5 9 8 15 7 15 20 35 59 55 53 52 50 46 29 29 35 29 21 11 2 5 8 12 20 28 30 29 26 24 27 30 33 37 41 42 43 43 48 51 54 58 58 58 63 61
7 10 5 4 11 7 25 14 17 34 46 58 58 55 59 57 51 46 44 39 32 22 12 7 3 8 16 29 35 32 33 34 37 36 32 34 35 38 43 45 46 47 48 55 54 53 62 65 69
12 6 7 10 17 4 13 7 23 32 47 63 61 58 65 61 55 52 48 41 33 25 15 12 7 6 17 35 37 38 37 37 41 42 45 43 39 40 42 45 50 50 52 50 56 55 50 65 75
11 7 7 7 6 7 8 15 15 15 43 59 65 62 71 68 66 61 53 44 35 29 20 16 5 14 24 30 37 39 36 39 43 46 47 50 52 49 50 50 49 53 56 54 52 52 62 58 70
2 2 4 5 7 4 12 13 21 26 15 22 40 60 72 77 72 62 54 46 40 33 26 16 7 14 25 29 41 47 46 49 51 52 54 53 54 55 54 48 48 47 53 58 55 56 55 61 69
6 3 11 12 7 7 7 16 18 11 18 43 52 61 70 80 76 67 61 54 46 36 26 13 6 15 27 34 46 53 56 58 60 63 64 61 55 52 53 54 50 47 49 53 56 56 60 63 41
7 9 10 14 6 4 8 13 12 14 25 42 55 70 74 85 89 78 70 62 52 42 25 13 13 23 32 38 46 54 55 57 64 67 73 69 61 56 53 56 56 52 50 50 51 52 54 60 64
7 16 11 8 7 8 3 11 10 11 15 12 54 62 58 69 87 85 76 66 57 39 24 15 18 26 31 38 47 57 59 61 65 72 78 80 67 58 58 57 58 57 54 54 51 49 50 49 54
15 9 14 6 6 2 3 3 13 5 11 20 25 49 48 59 80 91 80 67 49 32 17 18 22 24 30 40 49 59 61 62 68 75 80 79 73 61 58 55 53 55 56 56 54 52 49 48 51
17 11 14 9 6 4 14 14 10 7 8 12 12 36 42 53 69 86 71 56 41 25 22 24 24 25 32 41 51 61 62 63 71 78 81 79 74 68 60 56 58 55 54 56 54 51 51 49 52
11 12 5 7 4 11 0 3 16 11 14 11 27 47 27 45 65 79 69 52 32 27 28 28 27 29 36 45 55 61 59 64 72 77 80 77 72 67 61 58 59 61 58 58 60 56 54 52 54
13 16 12 12 7 8 2 12 12 5 13 23 21 15 21 43 66 69 54 35 33 33 33 32 31 35 41 50 59 59 60 67 76 79 77 73 70 68 66 62 63 62 60 58 57 63 62 59 57
9 7 9 13 5 4 9 14 15 4 11 9 10 28 39 55 59 48 39 43 38 38 36 34 35 38 46 54 58 60 65 70 79 78 76 74 71 70 69 68 67 67 66 61 60 65 67 68 65
11 15 7 5 7 10 9 9 12 10 8 6 10 31 47 49 48 49 45 42 42 43 40 38 37 44 51 57 57 63 69 73 80 78 76 75 74 73 71 71 69 69 69 66 62 64 60 66 69
6 4 10 9 9 11 3 12 14 18 20 21 24 50 55 55 50 48 48 48 47 45 40 36 41 48 54 56 60 67 73 76 81 76 72 74 76 73 72 74 74 73 71 68 69 67 64 70 71
12 17 14 11 11 5 6 22 12 17 23 39 45 52 48 46 46 46 49 51 50 43 39 40 44 51 54 56 65 72 76 78 77 73 69 71 77 76 77 77 77 76 74 72 73 70 65 67 72
Wind_Direction_850mb
174 201 240 152 62 67 313 262 257 118 121 106 123 141 117 69 70 151 351 70 158 169 166 167 167 163 152 147 161 172 181 191 196 197 192 187 183 174 168 157 151 147 141 135 132 131 130 122 108
171 197 171 128 90 92 256 269 181 132 128 115 103 109 80 66 53 58 82 85 148 177 171 166 165 164 160 150 150 161 176 188 202 207 205 201 197 189 180 169 162 158 152 150 146 140 137 133 125
158 164 169 97 116 160 194 244 223 102 100 121 101 69 50 342 20 53 83 112 131 165 169 165 165 166 166 165 160 154 164 179 191 201 206 208 204 200 191 182 173 169 166 165 161 156 148 149 147
178 156 74 86 137 239 233 113 124 128 93 84 110 70 86 43 32 35 129 119 126 152 164 166 167 167 167 169 178 183 170 169 182 189 200 209 210 206 201 194 187 181 178 178 177 176 173 187 191
124 82 59 94 184 294 298 101 109 87 94 104 82 110 85 68 82 78 138 113 126 131 150 167 169 169 172 174 176 179 180 178 188 196 198 205 214 213 210 207 202 198 191 188 191 193 196 216 219
88 83 67 155 170 253 16 138 141 110 122 115 108 99 72 70 117 121 146 139 134 132 131 159 166 172 176 181 188 196 197 196 198 221 228 218 213 216 221 223 220 217 211 202 200 204 208 218 240
117 83 169 170 149 92 155 141 171 146 123 100 121 89 109 94 96 124 143 143 134 136 130 124 111 108 112 93 255 244 233 227 226 220 225 242 244 233 229 230 234 234 231 222 216 212 216 220 233
113 93 109 200 185 177 182 125 138 104 63 120 124 148 143 116 120 132 144 145 143 142 122 120 133 104 90 66 357 235 237 249 247 243 243 237 240 250 253 250 243 240 240 237 233 229 225 226 232
138 67 161 199 167 182 164 139 166 156 136 119 146 133 133 126 121 131 135 136 145 139 143 134 127 123 102 83 61 64 202 228 255 269 266 259 256 253 254 257 259 257 252 247 244 242 240 235 235
97 113 204 188 184 181 156 149 142 128 124 109 119 130 134 133 137 127 131 132 135 141 138 145 138 136 100 55 41 61 85 102 260 272 271 271 264 258 261 262 260 262 263 261 258 253 250 249 243
153 181 186 200 183 159 150 149 147 131 311 162 152 151 153 153 168 150 133 134 134 127 127 129 142 129 92 36 18 13 351 307 287 262 269 278 276 270 264 258 262 266 265 265 264 263 260 256 253
168 224 182 163 160 154 163 150 127 151 199 187 168 163 160 163 163 161 151 142 143 143 148 155 164 175 224 294 305 314 314 316 311 299 287 277 270 272 277 274 269 266 266 268 268 266 263 261 259
148 275 206 196 174 169 168 181 181 206 169 179 172 171 169 169 165 159 159 158 162 174 165 167 195 315 317 313 312 308 300 293 291 295 296 293 284 276 265 264 274 272 269 265 266 269 270 266 262
300 285 20 195 182 154 159 206 180 225 186 186 180 180 182 176 173 169 173 181 178 176 164 174 289 309 323 336 346 342 328 317 306 291 282 285 287 284 283 277 263 264 266 269 268 264 267 268 266
56 105 7 246 203 225 172 287 222 200 187 176 184 188 188 186 186 207 203 196 191 187 189 256 326 359 22 22 8 359 352 343 325 312 303 293 287 285 281 278 282 272 267 267 268 263 266 265 260
80 53 137 267 159 239 164 235 249 208 184 190 193 193 192 195 199 195 194 194 188 196 209 265 298 37 23 8 1 358 351 344 336 327 313 303 299 292 286 283 275 275 278 269 264 267 266 267 265
5 195 184 302 200 128 174 269 245 202 193 197 198 198 198 198 197 197 195 195 195 198 209 207 181 36 13 2 359 352 346 341 338 331 323 316 305 297 292 286 284 277 271 270 264 256 260 271 270
211 196 222 214 201 169 189 264 284 191 199 207 205 202 202 203 209 203 198 196 199 207 212 211 224 13 12 2 356 347 340 337 335 332 327 318 312 306 298 292 288 283 276 269 266 264 258 261 271
145 173 255 252 256 216 223 246 252 252 218 200 207 207 209 209 210 203 201 199 202 207 213 220 275 359 359 354 349 345 339 335 333 330 326 318 310 304 304 300 292 288 279 274 271 268 265 264 260
187 291 285 284 265 167 288 261 251 247 229 232 215 210 213 213 212 205 203 205 211 215 212 224 293 334 344 348 346 342 335 331 329 326 324 321 312 302 297 296 295 291 287 275 270 269 270 264 270
215 185 224 220 360 15 336 280 237 258 246 240 234 235 230 221 212 205 202 206 210 214 219 239 302 327 335 340 336 334 329 323 323 324 325 323 316 305 295 292 290 288 284 281 275 269 268 271 259
246 210 178 180 107 236 41 281 286 241 249 256 250 241 237 224 216 207 202 204 207 208 222 266 299 314 324 329 326 329 327 323 322 322 323 321 317 306 296 289 286 284 282 277 274 269 265 265 268
229 144 154 137 132 86 276 309 261 249 255 252 255 254 250 232 221 209 203 203 201 206 228 260 288 304 314 318 318 324 320 319 317 318 319 317 313 305 297 293 288 283 278 273 272 269 265 261 263
153 81 55 60 102 312 212 183 272 245 215 303 276 284 283 234 218 207 196 195 197 208 238 259 275 294 304 308 313 318 316 316 316 319 318 317 312 307 301 296 293 289 277 269 269 268 264 261 258
83 75 345 343 2 232 197 128 251 243 281 255 287 293 269 217 203 190 185 185 198 224 242 254 272 288 294 301 310 314 313 312 316 317 316 314 311 305 301 298 295 294 286 274 264 264 263 259 256
187 155 157 209 199 254 95 235 250 247 311 305 297 259 197 186 184 174 177 190 215 230 243 255 270 279 291 302 310 311 309 311 315 316 314 310 307 305 301 296 293 293 290 282 272 264 259 257 257
190 165 200 106 23 63 234 290 304 234 359 25 110 148 156 159 160 169 189 208 222 236 247 256 265 282 296 305 308 308 309 312 317 316 313 312 309 308 304 299 296 295 294 288 279 267 258 257 259
168 158 78 6 171 229 268 269 235 236 211 141 138 153 157 163 178 193 206 221 231 237 243 253 272 287 300 305 305 307 311 313 317 314 313 311 307 305 303 298 296 293 293 291 286 275 265 257 254
145 187 52 128 145 184 213 256 217 211 188 188 198 181 185 193 200 210 219 226 233 238 244 261 278 293 300 300 303 307 311 313 316 312 311 308 304 303 301 299 298 297 294 290 286 280 267 254 251
177 195 158 144 221 227 167 261 201 211 192 189 205 205 208 215 223 227 230 232 236 240 251 270 288 294 297 301 307 309 311 314 315 313 310 308 305 304 303 301 297 296 296 292 285 283 268 255 251